Weather History for Versailles, OH

Change the Weather History Date:

Thursday, July 25, 2013

  Actual Average (KDAY) Record (KDAY)
Temperature  
Mean Temperature 62 °F 74 °F  
Max Temperature 73 °F 84 °F 104 °F (1934)
Min Temperature 50 °F 64 °F 50 °F (1906)
Degree Days  
Heating Degree Days 4 0  
Month to date heating degree days 0  
Since 1 June heating degree days 22  
Since 1 July heating degree days 0  
Cooling Degree Days 0 9  
Month to date cooling degree days 225  
Year to date cooling degree days 485  
Since 1 June cooling degree days 415  
Growing Degree Days 12 (Base 50)    
Moisture  
Dew Point 54 °F    
Average Humidity 76    
Maximum Humidity 100    
Minimum Humidity 50    
Precipitation  
Precipitation 0.00 in 0.13 in 1.56 in (1908)
Month to date precipitation 3.43  
Year to date precipitation 24.64  
Snow  
Snow 0.00 in 0.00 in 0.00 in ()
Month to date snowfall 0.0  
Since 1 June snowfall 0.0  
Since 1 July snowfall 0.0  
Snow Depth -    
Sea Level Pressure  
Sea Level Pressure 30.09 in    
Wind  
Wind Speed 3 mph (NE)    
Max Wind Speed 10 mph    
Max Gust Speed -    
Visibility 9 miles    
Events      
T = Trace of Precipitation, MM = Missing Value Source: NWS Daily Summary

Daily Weather History Graph

Daily Weather History Graph

Search for Another Location

Airport:

Trip Planner

Search our weather history database for the weather conditions in past years. The results will help you decide how hot, cold, wet, or windy it might be!

Date:

Astronomy

Jul. 25, 2013 Rise Set
Actual Time 6:29 AM EDT 8:58 PM EDT
Civil Twilight 5:58 AM EDT 9:29 PM EDT
Nautical Twilight 5:20 AM EDT 10:08 PM EDT
Astronomical Twilight 4:37 AM EDT 10:51 PM EDT
Moon 10:38 PM EDT (7/25) 9:58 AM EDT (7/25)
Length of Visible Light 15h 31m
Length of Day
14h 29m
Waning Gibbous, 88% of the Moon is Illuminated
Jul 25
Waning Gibbous
Jul 29
Last Quarter
Aug 6
New
Aug 14
First Quarter
Aug 20
Full

Hourly Weather History & Observations

Time (EDT) Temp. Dew Point Humidity Pressure Visibility Wind Dir Wind Speed Gust Speed Precip Events Conditions
12:15 AM 55.4 °F 53.6 °F 94% 30.05 in 10.0 mi NE 3.5 mph - N/A   Clear
12:35 AM 55.4 °F 53.6 °F 94% 30.05 in 10.0 mi Calm Calm - N/A   Clear
12:55 AM 55.4 °F 53.6 °F 94% 30.05 in 10.0 mi Calm Calm - N/A   Clear
1:15 AM 55.4 °F 53.6 °F 94% 30.04 in 10.0 mi Calm Calm - N/A   Clear
1:35 AM 53.6 °F 53.6 °F 100% 30.04 in 10.0 mi Calm Calm - N/A   Clear
1:55 AM 53.6 °F 51.8 °F 94% 30.04 in 10.0 mi Calm Calm - N/A   Clear
2:15 AM 53.6 °F 53.6 °F 100% 30.04 in 10.0 mi Calm Calm - N/A   Clear
2:35 AM 51.8 °F 51.8 °F 100% 30.05 in 7.0 mi Calm Calm - N/A   Clear
2:55 AM 51.8 °F 51.8 °F 100% 30.05 in 4.0 mi Calm Calm - N/A   Clear
3:15 AM 51.8 °F 51.8 °F 100% 30.05 in 4.0 mi Calm Calm - N/A   Clear
3:35 AM 51.8 °F 51.8 °F 100% 30.05 in 4.0 mi Calm Calm - N/A   Clear
3:55 AM 50.0 °F 50.0 °F 100% 30.04 in 4.0 mi Calm Calm - N/A   Clear
4:15 AM 51.8 °F 51.8 °F 100% 30.05 in 5.0 mi Calm Calm - N/A   Clear
4:35 AM 51.8 °F 51.8 °F 100% 30.05 in 4.0 mi Calm Calm - N/A   Clear
4:55 AM 50.0 °F 50.0 °F 100% 30.05 in 3.0 mi Calm Calm - N/A   Clear
5:15 AM 50.0 °F 50.0 °F 100% 30.06 in 5.0 mi North 4.6 mph - N/A   Clear
5:35 AM 50.0 °F 50.0 °F 100% 30.06 in 5.0 mi North 3.5 mph - N/A   Clear
5:55 AM 50.0 °F 50.0 °F 100% 30.06 in 7.0 mi Calm Calm - N/A   Clear
6:15 AM 50.0 °F 50.0 °F 100% 30.06 in 10.0 mi NNE 3.5 mph - N/A   Clear
6:35 AM 50.0 °F 50.0 °F 100% 30.06 in 10.0 mi NE 4.6 mph - N/A   Clear
6:55 AM 50.0 °F 50.0 °F 100% 30.07 in 10.0 mi NE 4.6 mph - N/A   Clear
7:15 AM 51.8 °F 51.8 °F 100% 30.08 in 10.0 mi Calm Calm - N/A   Clear
7:35 AM 53.6 °F 53.6 °F 100% 30.09 in 10.0 mi Calm Calm - N/A   Clear
7:55 AM 53.6 °F 53.6 °F 100% 30.09 in 10.0 mi NE 3.5 mph - N/A   Clear
8:15 AM 55.4 °F 55.4 °F 100% 30.10 in 10.0 mi North - - N/A   Clear
8:35 AM 59.0 °F 55.4 °F 88% 30.10 in 10.0 mi North - - N/A   Clear
8:55 AM 60.8 °F 53.6 °F 77% 30.09 in 10.0 mi North - - N/A   Clear
9:15 AM 60.8 °F 55.4 °F 82% 30.09 in 10.0 mi East 6.9 mph - N/A   Clear
9:35 AM 62.6 °F 53.6 °F 72% 30.10 in 10.0 mi East 5.8 mph - N/A   Clear
9:55 AM 64.4 °F 53.6 °F 68% 30.10 in 10.0 mi East 6.9 mph - N/A   Clear
10:15 AM 64.4 °F 53.6 °F 68% 30.10 in 10.0 mi East 5.8 mph - N/A   Clear
10:35 AM 66.2 °F 53.6 °F 64% 30.10 in 10.0 mi East 6.9 mph - N/A   Clear
10:55 AM 68.0 °F 53.6 °F 60% 30.11 in 10.0 mi ESE 6.9 mph - N/A   Clear
11:15 AM 68.0 °F 53.6 °F 60% 30.11 in 10.0 mi East 6.9 mph - N/A   Clear
11:35 AM 68.0 °F 53.6 °F 60% 30.11 in 10.0 mi East 6.9 mph - N/A   Clear
11:55 AM 69.8 °F 51.8 °F 53% 30.11 in 10.0 mi SE 3.5 mph - N/A   Scattered Clouds
12:15 PM 69.8 °F 51.8 °F 53% 30.12 in 10.0 mi ESE 3.5 mph - N/A   Scattered Clouds
12:35 PM 69.8 °F 51.8 °F 53% 30.11 in 10.0 mi East 4.6 mph - N/A   Clear
12:55 PM 71.6 °F 51.8 °F 50% 30.11 in 10.0 mi Calm Calm - N/A   Scattered Clouds
1:15 PM 69.8 °F 51.8 °F 53% 30.11 in 10.0 mi NNE 4.6 mph - N/A   Scattered Clouds
1:35 PM 71.6 °F 51.8 °F 50% 30.11 in 10.0 mi NNE 5.8 mph - N/A   Clear
1:55 PM 71.6 °F 51.8 °F 50% 30.10 in 10.0 mi NE 8.1 mph - N/A   Scattered Clouds
2:15 PM 71.6 °F 53.6 °F 53% 30.10 in 10.0 mi NNE 3.5 mph - N/A   Scattered Clouds
2:35 PM 73.4 °F 53.6 °F 50% 30.11 in 10.0 mi NE 6.9 mph - N/A   Clear
2:55 PM 73.4 °F 53.6 °F 50% 30.10 in 10.0 mi North 4.6 mph - N/A   Clear
3:15 PM 73.4 °F 53.6 °F 50% 30.10 in 10.0 mi NNE 4.6 mph - N/A   Scattered Clouds
3:35 PM 73.4 °F 53.6 °F 50% 30.10 in 10.0 mi North 4.6 mph - N/A   Scattered Clouds
3:55 PM 73.4 °F 53.6 °F 50% 30.11 in 10.0 mi NE 8.1 mph - N/A   Scattered Clouds
4:15 PM 73.4 °F 55.4 °F 53% 30.10 in 10.0 mi NE 5.8 mph - N/A   Mostly Cloudy
4:35 PM 73.4 °F 53.6 °F 50% 30.10 in 10.0 mi NNE 6.9 mph - N/A   Scattered Clouds
4:55 PM 71.6 °F 55.4 °F 57% 30.10 in 10.0 mi NE 10.4 mph - N/A   Scattered Clouds
5:15 PM 73.4 °F 53.6 °F 50% 30.10 in 10.0 mi Calm Calm - N/A   Scattered Clouds
5:35 PM 71.6 °F 53.6 °F 53% 30.09 in 10.0 mi North 3.5 mph - N/A   Mostly Cloudy
5:55 PM 73.4 °F 53.6 °F 50% 30.09 in 10.0 mi North 8.1 mph - N/A   Scattered Clouds
6:15 PM 73.4 °F 53.6 °F 50% 30.09 in 10.0 mi NE 6.9 mph - N/A   Scattered Clouds
6:35 PM 73.4 °F 53.6 °F 50% 30.09 in 10.0 mi Calm Calm - N/A   Scattered Clouds
6:55 PM 69.8 °F 55.4 °F 60% 30.09 in 10.0 mi North 4.6 mph - N/A   Clear
7:15 PM 71.6 °F 53.6 °F 53% 30.09 in 10.0 mi North 6.9 mph - N/A   Scattered Clouds
7:35 PM 71.6 °F 55.4 °F 57% 30.09 in 10.0 mi NE 6.9 mph - N/A   Mostly Cloudy
7:55 PM 69.8 °F 55.4 °F 60% 30.10 in 10.0 mi NE 3.5 mph - N/A   Scattered Clouds
8:15 PM 68.0 °F 57.2 °F 68% 30.10 in 10.0 mi NE 4.6 mph - N/A   Clear
8:35 PM 66.2 °F 59.0 °F 78% 30.10 in 10.0 mi NE 3.5 mph - N/A   Clear
8:55 PM 64.4 °F 57.2 °F 77% 30.10 in 10.0 mi NNE 3.5 mph - N/A   Clear
9:15 PM 64.4 °F 57.2 °F 77% 30.10 in 10.0 mi NE 3.5 mph - N/A   Clear
9:35 PM 64.4 °F 55.4 °F 73% 30.10 in 10.0 mi Calm Calm - N/A   Clear
9:55 PM 62.6 °F 57.2 °F 82% 30.10 in 10.0 mi Calm Calm - N/A   Clear
10:15 PM 60.8 °F 57.2 °F 88% 30.11 in 10.0 mi Calm Calm - N/A   Clear
10:35 PM 60.8 °F 57.2 °F 88% 30.10 in 10.0 mi Calm Calm - N/A   Clear
10:55 PM 59.0 °F 57.2 °F 94% 30.10 in 10.0 mi Calm Calm - N/A   Clear
11:15 PM 59.0 °F 55.4 °F 88% 30.11 in 10.0 mi Calm Calm - N/A   Clear
11:35 PM 59.0 °F 57.2 °F 94% 30.10 in 10.0 mi Calm Calm - N/A   Clear
11:55 PM 59.0 °F 55.4 °F 88% 30.11 in 10.0 mi Calm Calm - N/A   Clear